owner,sensor,date,latitude,longitude,air_pressure(mBar),qcFlag 
TABS,ioos:station:wmo:42047:1,2017-04-01T00:00:00Z,27.8966,-93.5973,1010.93,11111222 
TABS,ioos:station:wmo:42047:1,2017-04-01T00:30:00Z,27.8966,-93.5973,1011.04,11111222 
TABS,ioos:station:wmo:42047:1,2017-04-01T01:00:00Z,27.8966,-93.5973,1011.12,11111222 
TABS,ioos:station:wmo:42047:1,2017-04-01T01:30:00Z,27.8966,-93.5973,1011.34,11111222 
TABS,ioos:station:wmo:42047:1,2017-04-01T02:00:00Z,27.8966,-93.5973,1011.68,11111222 
TABS,ioos:station:wmo:42047:1,2017-04-01T02:30:00Z,27.8966,-93.5973,1011.98,11111222 
TABS,ioos:station:wmo:42047:1,2017-04-01T03:00:00Z,27.8966,-93.5973,1012.18,11111222 
TABS,ioos:station:wmo:42047:1,2017-04-01T03:30:00Z,27.8966,-93.5973,1012.22,11111222 
TABS,ioos:station:wmo:42047:1,2017-04-01T04:00:00Z,27.8966,-93.5973,1012.26,11111222 
TABS,ioos:station:wmo:42047:1,2017-04-01T04:30:00Z,27.8966,-93.5973,1012.14,11111222 
TABS,ioos:station:wmo:42047:1,2017-04-01T05:00:00Z,27.8966,-93.5973,1011.95,11111222 
TABS,ioos:station:wmo:42047:1,2017-04-01T05:30:00Z,27.8966,-93.5973,1011.65,11111222 
TABS,ioos:station:wmo:42047:1,2017-04-01T06:00:00Z,27.8966,-93.5973,1011.63,11111222 
TABS,ioos:station:wmo:42047:1,2017-04-01T06:30:00Z,27.8966,-93.5973,1011.44,11111222 
TABS,ioos:station:wmo:42047:1,2017-04-01T07:00:00Z,27.8966,-93.5973,1011.21,11111222 
TABS,ioos:station:wmo:42047:1,2017-04-01T07:30:00Z,27.8966,-93.5973,1011.13,11111222 
TABS,ioos:station:wmo:42047:1,2017-04-01T08:00:00Z,27.8966,-93.5973,1010.88,11111222 
TABS,ioos:station:wmo:42047:1,2017-04-01T08:30:00Z,27.8966,-93.5973,1010.6,11111222 
TABS,ioos:station:wmo:42047:1,2017-04-01T09:00:00Z,27.8966,-93.5973,1010.42,11111222 
TABS,ioos:station:wmo:42047:1,2017-04-01T09:30:00Z,27.8966,-93.5973,1010.37,11111222 
TABS,ioos:station:wmo:42047:1,2017-04-01T10:00:00Z,27.8966,-93.5973,1010.58,11111222 
TABS,ioos:station:wmo:42047:1,2017-04-01T10:30:00Z,27.8966,-93.5973,1011.15,11111222 
TABS,ioos:station:wmo:42047:1,2017-04-01T11:00:00Z,27.8966,-93.5973,1011.3,11111222 
TABS,ioos:station:wmo:42047:1,2017-04-01T11:30:00Z,27.8966,-93.5973,1011.6,11111222 
TABS,ioos:station:wmo:42047:1,2017-04-01T12:00:00Z,27.8966,-93.5973,1011.69,11111222 
TABS,ioos:station:wmo:42047:1,2017-04-01T12:30:00Z,27.8966,-93.5973,1012.31,11111222 
TABS,ioos:station:wmo:42047:1,2017-04-01T13:00:00Z,27.8966,-93.5973,1012.72,11111222 
TABS,ioos:station:wmo:42047:1,2017-04-01T13:30:00Z,27.8966,-93.5973,1012.63,11111222 
TABS,ioos:station:wmo:42047:1,2017-04-01T14:00:00Z,27.8966,-93.5973,1013.01,11111222 
TABS,ioos:station:wmo:42047:1,2017-04-01T14:30:00Z,27.8966,-93.5973,1013.35,11111222 
TABS,ioos:station:wmo:42047:1,2017-04-01T15:00:00Z,27.8966,-93.5973,1013.56,11111222 
TABS,ioos:station:wmo:42047:1,2017-04-01T15:30:00Z,27.8966,-93.5973,1013.93,11111222 
TABS,ioos:station:wmo:42047:1,2017-04-01T16:00:00Z,27.8966,-93.5973,1013.9,11111222 
TABS,ioos:station:wmo:42047:1,2017-04-01T16:30:00Z,27.8966,-93.5973,1013.84,11111222 
TABS,ioos:station:wmo:42047:1,2017-04-01T17:00:00Z,27.8966,-93.5973,1013.6,11111222 
TABS,ioos:station:wmo:42047:1,2017-04-01T17:30:00Z,27.8966,-93.5973,1013.23,11111222 
TABS,ioos:station:wmo:42047:1,2017-04-01T18:00:00Z,27.8966,-93.5973,1012.99,11111222 
TABS,ioos:station:wmo:42047:1,2017-04-01T18:30:00Z,27.8966,-93.5973,1012.87,11111222 
TABS,ioos:station:wmo:42047:1,2017-04-01T19:00:00Z,27.8966,-93.5973,1012.46,11111222 
TABS,ioos:station:wmo:42047:1,2017-04-01T19:30:00Z,27.8966,-93.5973,1012.2,11111222 
TABS,ioos:station:wmo:42047:1,2017-04-01T20:00:00Z,27.8966,-93.5973,1012.01,11111222 
TABS,ioos:station:wmo:42047:1,2017-04-01T20:30:00Z,27.8966,-93.5973,1011.89,11111222 
TABS,ioos:station:wmo:42047:1,2017-04-01T21:00:00Z,27.8966,-93.5973,1011.9,11111222 
TABS,ioos:station:wmo:42047:1,2017-04-01T21:30:00Z,27.8966,-93.5973,1011.36,11111222 
TABS,ioos:station:wmo:42047:1,2017-04-01T22:00:00Z,27.8966,-93.5973,1011.53,11111222 
TABS,ioos:station:wmo:42047:1,2017-04-01T22:30:00Z,27.8966,-93.5973,1011.86,11111222 
TABS,ioos:station:wmo:42047:1,2017-04-01T23:00:00Z,27.8966,-93.5973,1011.52,11111222 
TABS,ioos:station:wmo:42047:1,2017-04-01T23:30:00Z,27.8966,-93.5973,1009.34,11111222 
TABS,ioos:station:wmo:42047:1,2017-04-02T00:00:00Z,27.8966,-93.5973,1010.07,11111222 
TABS,ioos:station:wmo:42047:1,2017-04-02T00:30:00Z,27.8966,-93.5973,1010.48,11111222 
TABS,ioos:station:wmo:42047:1,2017-04-02T01:00:00Z,27.8966,-93.5973,1011.28,11111222 
TABS,ioos:station:wmo:42047:1,2017-04-02T01:30:00Z,27.8966,-93.5973,1010.76,11111222 
TABS,ioos:station:wmo:42047:1,2017-04-02T02:00:00Z,27.8966,-93.5973,1011.27,11111222 
TABS,ioos:station:wmo:42047:1,2017-04-02T02:30:00Z,27.8966,-93.5973,1011.75,11111222 
TABS,ioos:station:wmo:42047:1,2017-04-02T03:00:00Z,27.8966,-93.5973,1012.19,11111222 
TABS,ioos:station:wmo:42047:1,2017-04-02T03:30:00Z,27.8966,-93.5973,1011.99,11111222 
TABS,ioos:station:wmo:42047:1,2017-04-02T04:00:00Z,27.8966,-93.5973,1011.9,11111222 
TABS,ioos:station:wmo:42047:1,2017-04-02T04:30:00Z,27.8966,-93.5973,1011.58,11111222 
TABS,ioos:station:wmo:42047:1,2017-04-02T05:00:00Z,27.8966,-93.5973,1011.46,11111222 
TABS,ioos:station:wmo:42047:1,2017-04-02T05:30:00Z,27.8966,-93.5973,1011.33,11111222 
TABS,ioos:station:wmo:42047:1,2017-04-02T06:00:00Z,27.8966,-93.5973,1010.55,11111222 
TABS,ioos:station:wmo:42047:1,2017-04-02T06:30:00Z,27.8966,-93.5973,1009.73,11111222 
TABS,ioos:station:wmo:42047:1,2017-04-02T07:00:00Z,27.8966,-93.5973,1009.72,11111222 
TABS,ioos:station:wmo:42047:1,2017-04-02T07:30:00Z,27.8966,-93.5973,1009.7,11111222 
TABS,ioos:station:wmo:42047:1,2017-04-02T08:00:00Z,27.8966,-93.5973,1009.34,11111222 
TABS,ioos:station:wmo:42047:1,2017-04-02T08:30:00Z,27.8966,-93.5973,1008.91,11111222 
TABS,ioos:station:wmo:42047:1,2017-04-02T09:00:00Z,27.8966,-93.5973,1008.35,11111222 
TABS,ioos:station:wmo:42047:1,2017-04-02T09:30:00Z,27.8966,-93.5973,1007.91,11111222 
TABS,ioos:station:wmo:42047:1,2017-04-02T10:00:00Z,27.8966,-93.5973,1007.9,11111222 
TABS,ioos:station:wmo:42047:1,2017-04-02T10:30:00Z,27.8966,-93.5973,1007.92,11111222 
TABS,ioos:station:wmo:42047:1,2017-04-02T11:00:00Z,27.8966,-93.5973,1008.15,11111222 
TABS,ioos:station:wmo:42047:1,2017-04-02T11:30:00Z,27.8966,-93.5973,1007.93,11111222 
TABS,ioos:station:wmo:42047:1,2017-04-02T12:00:00Z,27.8966,-93.5973,1008.84,11111222 
TABS,ioos:station:wmo:42047:1,2017-04-02T12:30:00Z,27.8966,-93.5973,1008.9,11111222 
TABS,ioos:station:wmo:42047:1,2017-04-02T13:00:00Z,27.8966,-93.5973,1009.0,11111222 
TABS,ioos:station:wmo:42047:1,2017-04-02T13:30:00Z,27.8966,-93.5973,1008.82,11111222 
TABS,ioos:station:wmo:42047:1,2017-04-02T14:00:00Z,27.8966,-93.5973,1008.62,11111222 
TABS,ioos:station:wmo:42047:1,2017-04-02T14:30:00Z,27.8966,-93.5973,1007.86,11111222 
TABS,ioos:station:wmo:42047:1,2017-04-02T15:00:00Z,27.8966,-93.5973,1007.84,11111222 
TABS,ioos:station:wmo:42047:1,2017-04-02T15:30:00Z,27.8966,-93.5973,1007.62,11111222 
TABS,ioos:station:wmo:42047:1,2017-04-02T16:00:00Z,27.8966,-93.5973,1007.84,11111222 
TABS,ioos:station:wmo:42047:1,2017-04-02T16:30:00Z,27.8966,-93.5973,1007.52,11111222 
TABS,ioos:station:wmo:42047:1,2017-04-02T17:00:00Z,27.8966,-93.5973,1007.24,11111222 
TABS,ioos:station:wmo:42047:1,2017-04-02T17:30:00Z,27.8966,-93.5973,1007.12,11111222 
TABS,ioos:station:wmo:42047:1,2017-04-02T18:00:00Z,27.8966,-93.5973,1007.13,11111222 
TABS,ioos:station:wmo:42047:1,2017-04-02T18:30:00Z,27.8966,-93.5973,1006.96,11111222 
TABS,ioos:station:wmo:42047:1,2017-04-02T19:00:00Z,27.8966,-93.5973,1006.43,11111222 
TABS,ioos:station:wmo:42047:1,2017-04-02T19:30:00Z,27.8966,-93.5973,1006.26,11111222 
TABS,ioos:station:wmo:42047:1,2017-04-02T20:00:00Z,27.8966,-93.5973,1005.74,11111222 
TABS,ioos:station:wmo:42047:1,2017-04-02T20:30:00Z,27.8966,-93.5973,1005.16,11111222 
TABS,ioos:station:wmo:42047:1,2017-04-02T21:00:00Z,27.8966,-93.5973,1004.58,11111222 
TABS,ioos:station:wmo:42047:1,2017-04-02T21:30:00Z,27.8966,-93.5973,1004.54,11111222 
TABS,ioos:station:wmo:42047:1,2017-04-02T22:00:00Z,27.8966,-93.5973,1004.32,11111222 
TABS,ioos:station:wmo:42047:1,2017-04-02T22:30:00Z,27.8966,-93.5973,1004.09,11111222 
TABS,ioos:station:wmo:42047:1,2017-04-02T23:00:00Z,27.8966,-93.5973,1003.94,11111222 
TABS,ioos:station:wmo:42047:1,2017-04-02T23:30:00Z,27.8966,-93.5973,1003.89,11111222 
TABS,ioos:station:wmo:42047:1,2017-04-03T00:00:00Z,27.8966,-93.5973,1004.11,11111222 
TABS,ioos:station:wmo:42047:1,2017-04-03T00:30:00Z,27.8966,-93.5973,1004.53,11111222 
TABS,ioos:station:wmo:42047:1,2017-04-03T01:00:00Z,27.8966,-93.5973,1004.94,11111222 
TABS,ioos:station:wmo:42047:1,2017-04-03T01:30:00Z,27.8966,-93.5973,1005.31,11111222 
TABS,ioos:station:wmo:42047:1,2017-04-03T02:00:00Z,27.8966,-93.5973,1005.45,11111222 
TABS,ioos:station:wmo:42047:1,2017-04-03T02:30:00Z,27.8966,-93.5973,1005.99,11111222 
TABS,ioos:station:wmo:42047:1,2017-04-03T03:00:00Z,27.8966,-93.5973,1006.34,11111222 
TABS,ioos:station:wmo:42047:1,2017-04-03T03:30:00Z,27.8966,-93.5973,1006.39,11111222 
TABS,ioos:station:wmo:42047:1,2017-04-03T04:00:00Z,27.8966,-93.5973,1006.26,11111222 
TABS,ioos:station:wmo:42047:1,2017-04-03T04:30:00Z,27.8966,-93.5973,1006.4,11111222 
TABS,ioos:station:wmo:42047:1,2017-04-03T05:00:00Z,27.8966,-93.5973,1006.65,11111222 
TABS,ioos:station:wmo:42047:1,2017-04-03T05:30:00Z,27.8966,-93.5973,1006.58,11111222 
TABS,ioos:station:wmo:42047:1,2017-04-03T06:00:00Z,27.8966,-93.5973,1006.68,11111222 
TABS,ioos:station:wmo:42047:1,2017-04-03T06:30:00Z,27.8966,-93.5973,1006.98,11111222 
TABS,ioos:station:wmo:42047:1,2017-04-03T07:00:00Z,27.8966,-93.5973,1007.07,11111222 
TABS,ioos:station:wmo:42047:1,2017-04-03T07:30:00Z,27.8966,-93.5973,1007.01,11111222 
TABS,ioos:station:wmo:42047:1,2017-04-03T08:00:00Z,27.8966,-93.5973,1007.01,11111222 
TABS,ioos:station:wmo:42047:1,2017-04-03T08:30:00Z,27.8966,-93.5973,1006.87,11111222 
TABS,ioos:station:wmo:42047:1,2017-04-03T09:00:00Z,27.8966,-93.5973,1006.46,11111222 
TABS,ioos:station:wmo:42047:1,2017-04-03T09:30:00Z,27.8966,-93.5973,1007.31,11111222 
TABS,ioos:station:wmo:42047:1,2017-04-03T10:00:00Z,27.8966,-93.5973,1007.29,11111222 
TABS,ioos:station:wmo:42047:1,2017-04-03T10:30:00Z,27.8966,-93.5973,1007.27,11111222 
TABS,ioos:station:wmo:42047:1,2017-04-03T11:00:00Z,27.8966,-93.5973,1007.26,11111222 
TABS,ioos:station:wmo:42047:1,2017-04-03T11:30:00Z,27.8966,-93.5973,1008.68,11111222 
TABS,ioos:station:wmo:42047:1,2017-04-03T12:00:00Z,27.8966,-93.5973,1008.35,11111222 
TABS,ioos:station:wmo:42047:1,2017-04-03T12:30:00Z,27.8966,-93.5973,1008.86,11111222 
TABS,ioos:station:wmo:42047:1,2017-04-03T13:00:00Z,27.8966,-93.5973,1008.94,11111222 
TABS,ioos:station:wmo:42047:1,2017-04-03T13:30:00Z,27.8966,-93.5973,1009.34,11111222 
TABS,ioos:station:wmo:42047:1,2017-04-03T14:00:00Z,27.8966,-93.5973,1009.69,11111222 
TABS,ioos:station:wmo:42047:1,2017-04-03T14:30:00Z,27.8966,-93.5973,1010.04,11111222 
TABS,ioos:station:wmo:42047:1,2017-04-03T15:00:00Z,27.8966,-93.5973,1010.02,11111222 
TABS,ioos:station:wmo:42047:1,2017-04-03T15:30:00Z,27.8966,-93.5973,1010.23,11111222 
TABS,ioos:station:wmo:42047:1,2017-04-03T16:00:00Z,27.8966,-93.5973,1010.39,11111222 
TABS,ioos:station:wmo:42047:1,2017-04-03T16:30:00Z,27.8966,-93.5973,1010.32,11111222 
TABS,ioos:station:wmo:42047:1,2017-04-03T17:00:00Z,27.8966,-93.5973,1010.33,11111222 
TABS,ioos:station:wmo:42047:1,2017-04-03T17:30:00Z,27.8966,-93.5973,1010.18,11111222 
TABS,ioos:station:wmo:42047:1,2017-04-03T18:00:00Z,27.8966,-93.5973,1009.94,11111222 
TABS,ioos:station:wmo:42047:1,2017-04-03T18:30:00Z,27.8966,-93.5973,1009.77,11111222 
TABS,ioos:station:wmo:42047:1,2017-04-03T19:00:00Z,27.8966,-93.5973,1009.78,11111222 
TABS,ioos:station:wmo:42047:1,2017-04-03T19:30:00Z,27.8966,-93.5973,1009.55,11111222 
TABS,ioos:station:wmo:42047:1,2017-04-03T20:00:00Z,27.8966,-93.5973,1008.99,11111222 
TABS,ioos:station:wmo:42047:1,2017-04-03T20:30:00Z,27.8966,-93.5973,1008.68,11111222 
TABS,ioos:station:wmo:42047:1,2017-04-03T21:00:00Z,27.8966,-93.5973,1008.3,11111222 
TABS,ioos:station:wmo:42047:1,2017-04-03T21:30:00Z,27.8966,-93.5973,1008.02,11111222 
TABS,ioos:station:wmo:42047:1,2017-04-03T22:00:00Z,27.8966,-93.5973,1007.99,11111222 
TABS,ioos:station:wmo:42047:1,2017-04-03T22:30:00Z,27.8966,-93.5973,1008.2,11111222 
TABS,ioos:station:wmo:42047:1,2017-04-03T23:00:00Z,27.8966,-93.5973,1008.09,11111222 
TABS,ioos:station:wmo:42047:1,2017-04-03T23:30:00Z,27.8966,-93.5973,1007.77,11111222 
TABS,ioos:station:wmo:42047:1,2017-04-04T00:00:00Z,27.8966,-93.5973,1008.0,11111222 
TABS,ioos:station:wmo:42047:1,2017-04-04T00:30:00Z,27.8966,-93.5973,1008.16,11111222 
TABS,ioos:station:wmo:42047:1,2017-04-04T01:00:00Z,27.8966,-93.5973,1008.51,11111222 
TABS,ioos:station:wmo:42047:1,2017-04-04T01:30:00Z,27.8966,-93.5973,1008.44,11111222 
TABS,ioos:station:wmo:42047:1,2017-04-04T02:00:00Z,27.8966,-93.5973,1008.71,11111222 
TABS,ioos:station:wmo:42047:1,2017-04-04T02:30:00Z,27.8966,-93.5973,1008.86,11111222 
TABS,ioos:station:wmo:42047:1,2017-04-04T03:00:00Z,27.8966,-93.5973,1009.36,11111222 
TABS,ioos:station:wmo:42047:1,2017-04-04T03:30:00Z,27.8966,-93.5973,1009.67,11111222 
TABS,ioos:station:wmo:42047:1,2017-04-04T04:00:00Z,27.8966,-93.5973,1009.57,11111222 
TABS,ioos:station:wmo:42047:1,2017-04-04T04:30:00Z,27.8966,-93.5973,1009.42,11111222 
TABS,ioos:station:wmo:42047:1,2017-04-04T05:00:00Z,27.8966,-93.5973,1009.38,11111222 
TABS,ioos:station:wmo:42047:1,2017-04-04T05:30:00Z,27.8966,-93.5973,1009.32,11111222 
TABS,ioos:station:wmo:42047:1,2017-04-04T06:00:00Z,27.8966,-93.5973,1009.43,11111222 
TABS,ioos:station:wmo:42047:1,2017-04-04T06:30:00Z,27.8966,-93.5973,1009.13,11111222 
TABS,ioos:station:wmo:42047:1,2017-04-04T07:00:00Z,27.8966,-93.5973,1008.9,11111222 
TABS,ioos:station:wmo:42047:1,2017-04-04T07:30:00Z,27.8966,-93.5973,1008.63,11111222 
TABS,ioos:station:wmo:42047:1,2017-04-04T08:00:00Z,27.8966,-93.5973,1008.68,11111222 
TABS,ioos:station:wmo:42047:1,2017-04-04T08:30:00Z,27.8966,-93.5973,1007.71,11111222 
TABS,ioos:station:wmo:42047:1,2017-04-04T09:00:00Z,27.8966,-93.5973,1007.55,11111222 
TABS,ioos:station:wmo:42047:1,2017-04-04T09:30:00Z,27.8966,-93.5973,1007.56,11111222 
TABS,ioos:station:wmo:42047:1,2017-04-04T10:00:00Z,27.8966,-93.5973,1007.86,11111222 
TABS,ioos:station:wmo:42047:1,2017-04-04T10:30:00Z,27.8966,-93.5973,1008.21,11111222 
TABS,ioos:station:wmo:42047:1,2017-04-04T11:00:00Z,27.8966,-93.5973,1008.33,11111222 
TABS,ioos:station:wmo:42047:1,2017-04-04T11:30:00Z,27.8966,-93.5973,1008.28,11111222 
TABS,ioos:station:wmo:42047:1,2017-04-04T12:00:00Z,27.8966,-93.5973,1008.68,11111222 
TABS,ioos:station:wmo:42047:1,2017-04-04T12:30:00Z,27.8966,-93.5973,1008.97,11111222 
TABS,ioos:station:wmo:42047:1,2017-04-04T13:00:00Z,27.8966,-93.5973,1009.15,11111222 
TABS,ioos:station:wmo:42047:1,2017-04-04T13:30:00Z,27.8966,-93.5973,1009.36,11111222 
TABS,ioos:station:wmo:42047:1,2017-04-04T14:00:00Z,27.8966,-93.5973,1009.32,11111222 
TABS,ioos:station:wmo:42047:1,2017-04-04T14:30:00Z,27.8966,-93.5973,1009.42,11111222 
TABS,ioos:station:wmo:42047:1,2017-04-04T15:00:00Z,27.8966,-93.5973,1009.31,11111222 
TABS,ioos:station:wmo:42047:1,2017-04-04T15:30:00Z,27.8966,-93.5973,1009.35,11111222 
TABS,ioos:station:wmo:42047:1,2017-04-04T16:00:00Z,27.8966,-93.5973,1008.91,11111222 
TABS,ioos:station:wmo:42047:1,2017-04-04T16:30:00Z,27.8966,-93.5973,1008.98,11111222 
TABS,ioos:station:wmo:42047:1,2017-04-04T17:00:00Z,27.8966,-93.5973,1008.62,11111222 
TABS,ioos:station:wmo:42047:1,2017-04-04T17:30:00Z,27.8966,-93.5973,1008.59,11111222 
TABS,ioos:station:wmo:42047:1,2017-04-04T18:00:00Z,27.8966,-93.5973,1008.23,11111222 
TABS,ioos:station:wmo:42047:1,2017-04-04T18:30:00Z,27.8966,-93.5973,1007.92,11111222 
TABS,ioos:station:wmo:42047:1,2017-04-04T19:00:00Z,27.8966,-93.5973,1007.64,11111222 
TABS,ioos:station:wmo:42047:1,2017-04-04T19:30:00Z,27.8966,-93.5973,1007.07,11111222 
TABS,ioos:station:wmo:42047:1,2017-04-04T20:00:00Z,27.8966,-93.5973,1006.69,11111222 
TABS,ioos:station:wmo:42047:1,2017-04-04T20:30:00Z,27.8966,-93.5973,1006.49,11111222 
TABS,ioos:station:wmo:42047:1,2017-04-04T21:00:00Z,27.8966,-93.5973,1005.9,11111222 
TABS,ioos:station:wmo:42047:1,2017-04-04T21:30:00Z,27.8966,-93.5973,1005.84,11111222 
TABS,ioos:station:wmo:42047:1,2017-04-04T22:00:00Z,27.8966,-93.5973,1005.79,11111222 
TABS,ioos:station:wmo:42047:1,2017-04-04T22:30:00Z,27.8966,-93.5973,1005.95,11111222 
TABS,ioos:station:wmo:42047:1,2017-04-04T23:00:00Z,27.8966,-93.5973,1005.95,11111222 
TABS,ioos:station:wmo:42047:1,2017-04-04T23:30:00Z,27.8966,-93.5973,1005.8,11111222 
TABS,ioos:station:wmo:42047:1,2017-04-05T00:00:00Z,27.8966,-93.5973,1005.82,11111222 
TABS,ioos:station:wmo:42047:1,2017-04-05T00:30:00Z,27.8966,-93.5973,1005.93,11111222 
TABS,ioos:station:wmo:42047:1,2017-04-05T01:00:00Z,27.8966,-93.5973,1006.12,11111222 
TABS,ioos:station:wmo:42047:1,2017-04-05T01:30:00Z,27.8966,-93.5973,1006.81,11111222 
TABS,ioos:station:wmo:42047:1,2017-04-05T02:00:00Z,27.8966,-93.5973,1006.96,11111222 
TABS,ioos:station:wmo:42047:1,2017-04-05T02:30:00Z,27.8966,-93.5973,1007.57,11111222 
TABS,ioos:station:wmo:42047:1,2017-04-05T03:00:00Z,27.8966,-93.5973,1007.79,11111222 
TABS,ioos:station:wmo:42047:1,2017-04-05T03:30:00Z,27.8966,-93.5973,1007.67,11111222 
TABS,ioos:station:wmo:42047:1,2017-04-05T04:00:00Z,27.8966,-93.5973,1008.27,11111222 
TABS,ioos:station:wmo:42047:1,2017-04-05T04:30:00Z,27.8966,-93.5973,1008.11,11111222 
TABS,ioos:station:wmo:42047:1,2017-04-05T05:00:00Z,27.8966,-93.5973,1007.8,11111222 
TABS,ioos:station:wmo:42047:1,2017-04-05T05:30:00Z,27.8966,-93.5973,1007.64,11111222 
TABS,ioos:station:wmo:42047:1,2017-04-05T06:00:00Z,27.8966,-93.5973,1007.58,11111222 
TABS,ioos:station:wmo:42047:1,2017-04-05T06:30:00Z,27.8966,-93.5973,1007.54,11111222 
TABS,ioos:station:wmo:42047:1,2017-04-05T07:00:00Z,27.8966,-93.5973,1007.4,11111222 
TABS,ioos:station:wmo:42047:1,2017-04-05T07:30:00Z,27.8966,-93.5973,1007.29,11111222 
TABS,ioos:station:wmo:42047:1,2017-04-05T08:00:00Z,27.8966,-93.5973,1007.0,11111222 
TABS,ioos:station:wmo:42047:1,2017-04-05T08:30:00Z,27.8966,-93.5973,1006.8,11111222 
TABS,ioos:station:wmo:42047:1,2017-04-05T09:00:00Z,27.8966,-93.5973,1006.89,11111222 
TABS,ioos:station:wmo:42047:1,2017-04-05T09:30:00Z,27.8966,-93.5973,1007.07,11111222 
TABS,ioos:station:wmo:42047:1,2017-04-05T10:00:00Z,27.8966,-93.5973,1007.44,11111222 
TABS,ioos:station:wmo:42047:1,2017-04-05T10:30:00Z,27.8966,-93.5973,1007.88,11111222 
TABS,ioos:station:wmo:42047:1,2017-04-05T11:00:00Z,27.8966,-93.5973,1008.86,11111222 
TABS,ioos:station:wmo:42047:1,2017-04-05T11:30:00Z,27.8966,-93.5973,1009.69,11111222 
TABS,ioos:station:wmo:42047:1,2017-04-05T12:00:00Z,27.8966,-93.5973,1010.48,11111222 
TABS,ioos:station:wmo:42047:1,2017-04-05T12:30:00Z,27.8966,-93.5973,1010.72,11111222 
TABS,ioos:station:wmo:42047:1,2017-04-05T13:00:00Z,27.8966,-93.5973,1011.26,11111222 
TABS,ioos:station:wmo:42047:1,2017-04-05T13:30:00Z,27.8966,-93.5973,1011.72,11111222 
TABS,ioos:station:wmo:42047:1,2017-04-05T14:00:00Z,27.8966,-93.5973,1012.04,11111222 
TABS,ioos:station:wmo:42047:1,2017-04-05T14:30:00Z,27.8966,-93.5973,1012.36,11111222 
TABS,ioos:station:wmo:42047:1,2017-04-05T15:00:00Z,27.8966,-93.5973,1012.46,11111222 
TABS,ioos:station:wmo:42047:1,2017-04-05T15:30:00Z,27.8966,-93.5973,1013.17,11111222 
TABS,ioos:station:wmo:42047:1,2017-04-05T16:00:00Z,27.8966,-93.5973,1013.65,11111222 
TABS,ioos:station:wmo:42047:1,2017-04-05T16:30:00Z,27.8966,-93.5973,1013.71,11111222 
TABS,ioos:station:wmo:42047:1,2017-04-05T17:00:00Z,27.8966,-93.5973,1014.35,11111222 
TABS,ioos:station:wmo:42047:1,2017-04-05T17:30:00Z,27.8966,-93.5973,1013.94,11111222 
TABS,ioos:station:wmo:42047:1,2017-04-05T18:00:00Z,27.8966,-93.5973,1014.15,11111222 
TABS,ioos:station:wmo:42047:1,2017-04-05T18:30:00Z,27.8966,-93.5973,1014.05,11111222 
TABS,ioos:station:wmo:42047:1,2017-04-05T19:00:00Z,27.8966,-93.5973,1014.07,11111222 
TABS,ioos:station:wmo:42047:1,2017-04-05T19:30:00Z,27.8966,-93.5973,1014.58,11111222 
TABS,ioos:station:wmo:42047:1,2017-04-05T20:00:00Z,27.8966,-93.5973,1014.34,11111222 
TABS,ioos:station:wmo:42047:1,2017-04-05T20:30:00Z,27.8966,-93.5973,1014.43,11111222 
TABS,ioos:station:wmo:42047:1,2017-04-05T21:00:00Z,27.8966,-93.5973,1014.29,11111222 
TABS,ioos:station:wmo:42047:1,2017-04-05T21:30:00Z,27.8966,-93.5973,1014.48,11111222 
TABS,ioos:station:wmo:42047:1,2017-04-05T22:00:00Z,27.8966,-93.5973,1014.63,11111222 
TABS,ioos:station:wmo:42047:1,2017-04-05T22:30:00Z,27.8966,-93.5973,1014.86,11111222 
TABS,ioos:station:wmo:42047:1,2017-04-05T23:00:00Z,27.8966,-93.5973,1014.91,11111222 
TABS,ioos:station:wmo:42047:1,2017-04-05T23:30:00Z,27.8966,-93.5973,1015.52,11111222 
TABS,ioos:station:wmo:42047:1,2017-04-06T00:00:00Z,27.8966,-93.5973,1016.15,11111222 
TABS,ioos:station:wmo:42047:1,2017-04-06T00:30:00Z,27.8966,-93.5973,1016.17,11111222 
TABS,ioos:station:wmo:42047:1,2017-04-06T01:00:00Z,27.8966,-93.5973,1016.81,11111222 
TABS,ioos:station:wmo:42047:1,2017-04-06T01:30:00Z,27.8966,-93.5973,1017.18,11111222 
TABS,ioos:station:wmo:42047:1,2017-04-06T02:00:00Z,27.8966,-93.5973,1017.7,11111222 
TABS,ioos:station:wmo:42047:1,2017-04-06T02:30:00Z,27.8966,-93.5973,1017.97,11111222 
TABS,ioos:station:wmo:42047:1,2017-04-06T03:00:00Z,27.8966,-93.5973,1018.46,11111222 
TABS,ioos:station:wmo:42047:1,2017-04-06T03:30:00Z,27.8966,-93.5973,1018.81,11111222 
TABS,ioos:station:wmo:42047:1,2017-04-06T04:00:00Z,27.8966,-93.5973,1018.92,11111222 
TABS,ioos:station:wmo:42047:1,2017-04-06T04:30:00Z,27.8966,-93.5973,1019.31,11111222 
TABS,ioos:station:wmo:42047:1,2017-04-06T05:00:00Z,27.8966,-93.5973,1019.62,11111222 
TABS,ioos:station:wmo:42047:1,2017-04-06T05:30:00Z,27.8966,-93.5973,1019.74,11111222 
TABS,ioos:station:wmo:42047:1,2017-04-06T06:00:00Z,27.8966,-93.5973,1019.84,11111222 
TABS,ioos:station:wmo:42047:1,2017-04-06T06:30:00Z,27.8966,-93.5973,1019.8,11111222 
TABS,ioos:station:wmo:42047:1,2017-04-06T07:00:00Z,27.8966,-93.5973,1019.88,11111222 
TABS,ioos:station:wmo:42047:1,2017-04-06T07:30:00Z,27.8966,-93.5973,1020.24,11111222 
TABS,ioos:station:wmo:42047:1,2017-04-06T08:00:00Z,27.8966,-93.5973,1019.67,11111222 
TABS,ioos:station:wmo:42047:1,2017-04-06T08:30:00Z,27.8966,-93.5973,1019.54,11111222 
TABS,ioos:station:wmo:42047:1,2017-04-06T09:00:00Z,27.8966,-93.5973,1019.96,11111222 
TABS,ioos:station:wmo:42047:1,2017-04-06T09:30:00Z,27.8966,-93.5973,1020.42,11111222 
TABS,ioos:station:wmo:42047:1,2017-04-06T10:00:00Z,27.8966,-93.5973,1020.47,11111222 
TABS,ioos:station:wmo:42047:1,2017-04-06T10:30:00Z,27.8966,-93.5973,1020.89,11111222 
TABS,ioos:station:wmo:42047:1,2017-04-06T11:00:00Z,27.8966,-93.5973,1021.1,11111222 
TABS,ioos:station:wmo:42047:1,2017-04-06T11:30:00Z,27.8966,-93.5973,1021.49,11111222 
TABS,ioos:station:wmo:42047:1,2017-04-06T12:00:00Z,27.8966,-93.5973,1022.03,11111222 
TABS,ioos:station:wmo:42047:1,2017-04-06T12:30:00Z,27.8966,-93.5973,1022.41,11111222 
TABS,ioos:station:wmo:42047:1,2017-04-06T13:00:00Z,27.8966,-93.5973,1022.86,11111222 
TABS,ioos:station:wmo:42047:1,2017-04-06T13:30:00Z,27.8966,-93.5973,1023.36,11111222 
TABS,ioos:station:wmo:42047:1,2017-04-06T14:00:00Z,27.8966,-93.5973,1023.63,11111222 
TABS,ioos:station:wmo:42047:1,2017-04-06T14:30:00Z,27.8966,-93.5973,1023.78,11111222 
TABS,ioos:station:wmo:42047:1,2017-04-06T15:00:00Z,27.8966,-93.5973,1024.31,11111222 
TABS,ioos:station:wmo:42047:1,2017-04-06T15:30:00Z,27.8966,-93.5973,1024.33,11111222 
TABS,ioos:station:wmo:42047:1,2017-04-06T16:00:00Z,27.8966,-93.5973,1024.38,11111222 
TABS,ioos:station:wmo:42047:1,2017-04-06T16:30:00Z,27.8966,-93.5973,1024.23,11111222 
TABS,ioos:station:wmo:42047:1,2017-04-06T17:00:00Z,27.8966,-93.5973,1024.23,11111222 
TABS,ioos:station:wmo:42047:1,2017-04-06T17:30:00Z,27.8966,-93.5973,1023.96,11111222 
TABS,ioos:station:wmo:42047:1,2017-04-06T18:00:00Z,27.8966,-93.5973,1023.53,11111222 
TABS,ioos:station:wmo:42047:1,2017-04-06T18:30:00Z,27.8966,-93.5973,1023.53,11111222 